| time (UTC) | temp F | wind direction | speed MPH | gust MPH | rain 1hr in | rain 24hr in | rain mn in | humidity % | barometer mb |
| 20260831082506 | 66 | 169 | 0.0 | 0.0 | 0.00 | 0.06 | 0.00 | 98 | 1018.0 |
| 20260831081504 | 67 | 172 | 0.0 | 0.0 | 0.00 | 0.06 | 0.00 | 98 | 1017.9 |
| 20260831080504 | 67 | 170 | 0.0 | 0.0 | 0.00 | 0.06 | 0.00 | 98 | 1018.0 |
| 20260831075521 | 67 | 172 | 0.0 | 0.0 | 0.00 | 0.06 | 0.00 | 98 | 1017.8 |
| 20260831074508 | 67 | 172 | 0.0 | 0.0 | 0.00 | 0.06 | 0.00 | 98 | 1017.9 |
| 20260831073443 | 67 | 172 | 0.0 | 0.0 | 0.00 | 0.06 | 0.00 | 98 | 1017.9 |
| 20260831072409 | 67 | 172 | 0.0 | 0.0 | 0.00 | 0.06 | 0.00 | 98 | 1018.0 |
| 20260831071430 | 67 | 172 | 0.0 | 0.0 | 0.00 | 0.06 | 0.00 | 98 | 1017.9 |
| 20260831070430 | 68 | 172 | 0.0 | 0.0 | 0.00 | 0.06 | 0.00 | 98 | 1018.1 |
| 20260831065448 | 68 | 172 | 0.0 | 0.0 | 0.00 | 0.06 | 0.00 | 97 | 1018.0 |
| 20260831064437 | 68 | 172 | 0.0 | 0.0 | 0.00 | 0.06 | 0.00 | 97 | 1017.9 |
| 20260831063421 | 69 | 172 | 0.0 | 0.0 | 0.00 | 0.06 | 0.00 | 97 | 1017.8 |
| 20260831061309 | 69 | 172 | 0.0 | 0.0 | 0.00 | 0.06 | 0.00 | 97 | 1017.8 |
| 20260831060331 | 69 | 172 | 0.0 | 1.0 | 0.00 | 0.06 | 0.00 | 97 | 1017.8 |
| 20260831055344 | 70 | 155 | 0.0 | 0.0 | 0.00 | 0.06 | 0.00 | 97 | 1017.7 |
| 20260831054407 | 70 | 155 | 0.0 | 0.0 | 0.00 | 0.06 | 0.00 | 98 | 1017.5 |
| 20260831053403 | 70 | 155 | 0.0 | 0.0 | 0.00 | 0.06 | 0.00 | 98 | 1017.5 |
| 20260831052406 | 70 | 155 | 0.0 | 0.0 | 0.00 | 0.06 | 0.00 | 97 | 1017.4 |
| 20260831051419 | 70 | 155 | 0.0 | 0.0 | 0.00 | 0.06 | 0.00 | 98 | 1017.4 |
| 20260831050439 | 70 | 155 | 0.0 | 0.0 | 0.00 | 0.06 | 0.00 | 98 | 1017.4 |
| 20260831044257 | 70 | 155 | 0.0 | 0.0 | 0.00 | 0.06 | 0.00 | 98 | 1017.3 |
| 20260831043228 | 71 | 155 | 0.0 | 0.0 | 0.00 | 0.06 | 0.00 | 98 | 1017.3 |
| 20260831042237 | 71 | 155 | 0.0 | 0.0 | 0.00 | 0.06 | 0.00 | 98 | 1017.2 |
| 20260831041300 | 71 | 155 | 0.0 | 0.0 | 0.00 | 0.06 | 0.00 | 98 | 1017.3 |
| 20260831040321 | 71 | 155 | 0.0 | 0.0 | 0.00 | 0.06 | 0.00 | 97 | 1017.1 |
| 20260831035252 | 71 | 155 | 0.0 | 0.0 | 0.00 | 0.06 | 0.06 | 97 | 1017.2 |
| 20260831034249 | 71 | 155 | 0.0 | 0.0 | 0.00 | 0.06 | 0.06 | 97 | 1017.2 |
| 20260831033230 | 71 | 155 | 0.0 | 0.0 | 0.00 | 0.06 | 0.06 | 97 | 1017.4 |
| 20260831032209 | 72 | 155 | 0.0 | 0.0 | 0.00 | 0.06 | 0.06 | 97 | 1017.6 |
| 20260831030031 | 72 | 155 | 0.0 | 0.0 | 0.00 | 0.06 | 0.06 | 97 | 1017.8 |
| 20260831025035 | 72 | 155 | 0.0 | 0.0 | 0.00 | 0.06 | 0.06 | 97 | 1017.8 |
| 20260831024017 | 72 | 155 | 0.0 | 0.0 | 0.00 | 0.06 | 0.06 | 97 | 1017.7 |
| 20260831023007 | 72 | 155 | 0.0 | 0.0 | 0.00 | 0.06 | 0.06 | 97 | 1017.8 |
| 20260831021950 | 72 | 155 | 0.0 | 0.0 | 0.00 | 0.06 | 0.06 | 97 | 1017.8 |
| 20260831020945 | 72 | 155 | 0.0 | 0.0 | 0.00 | 0.06 | 0.06 | 97 | 1017.8 |
| 20260831015957 | 72 | 155 | 0.0 | 0.0 | 0.00 | 0.06 | 0.06 | 96 | 1017.8 |
| 20260831015011 | 72 | 155 | 0.0 | 0.0 | 0.05 | 0.06 | 0.06 | 96 | 1017.7 |
| 20260831014022 | 72 | 155 | 0.0 | 0.0 | 0.05 | 0.04 | 0.06 | 96 | 1017.7 |
| 20260831013042 | 73 | 155 | 0.0 | 0.0 | 0.04 | 0.04 | 0.05 | 96 | 1017.7 |
| 20260831012016 | 73 | 80 | 0.0 | 0.0 | 0.04 | 0.04 | 0.04 | 96 | 1017.6 |
| 20260831011033 | 73 | 80 | 0.0 | 0.0 | 0.04 | 0.03 | 0.04 | 95 | 1017.6 |
| 20260831004849 | 73 | 150 | 0.0 | 0.0 | 0.04 | 0.02 | 0.02 | 95 | 1017.4 |
| 20260831003904 | 73 | 150 | 0.0 | 0.0 | 0.00 | 0.01 | 0.01 | 94 | 1017.4 |
| 20260831002909 | 74 | 151 | 0.0 | 0.0 | 0.00 | 0.00 | 0.01 | 93 | 1017.2 |
| 20260831000758 | 74 | 150 | 0.0 | 0.0 | 0.00 | 0.00 | 0.00 | 91 | 1016.9 |
| 20260830235750 | 74 | 150 | 0.0 | 0.0 | 0.00 | 0.00 | 0.00 | 91 | 1016.8 |
| 20260830234728 | 75 | 150 | 0.0 | 0.0 | 0.00 | 0.00 | 0.00 | 90 | 1016.6 |
| 20260830233657 | 75 | 150 | 0.0 | 0.0 | 0.00 | 0.00 | 0.00 | 89 | 1016.6 |
| 20260830232707 | 75 | 150 | 0.0 | 0.0 | 0.00 | 0.00 | 0.00 | 88 | 1016.5 |
| 20260830230544 | 76 | 150 | 0.0 | 0.0 | 0.00 | 0.00 | 0.00 | 87 | 1016.5 |
| 20260830225511 | 76 | 149 | 0.0 | 0.0 | 0.00 | 0.00 | 0.00 | 86 | 1016.6 |
| 20260830224522 | 76 | 149 | 0.0 | 0.0 | 0.00 | 0.00 | 0.00 | 85 | 1016.6 |
| 20260830223453 | 76 | 153 | 0.0 | 0.0 | 0.00 | 0.00 | 0.00 | 84 | 1016.5 |
| 20260830222430 | 77 | 152 | 0.0 | 0.0 | 0.00 | 0.00 | 0.00 | 84 | 1016.6 |
| 20260830221358 | 77 | 120 | 0.0 | 0.0 | 0.00 | 0.00 | 0.00 | 83 | 1016.9 |
| 20260830220406 | 77 | 102 | 0.0 | 0.0 | 0.00 | 0.00 | 0.00 | 83 | 1016.9 |
| 20260830214306 | 78 | 108 | 0.0 | 0.0 | 0.00 | 0.00 | 0.00 | 80 | 1016.9 |
| 20260830213233 | 78 | 83 | 0.0 | 0.0 | 0.00 | 0.00 | 0.00 | 80 | 1016.8 |
| 20260830212233 | 78 | 100 | 0.0 | 5.0 | 0.00 | 0.00 | 0.00 | 79 | 1016.7 |
| 20260830211221 | 78 | 135 | 0.0 | 1.0 | 0.00 | 0.00 | 0.00 | 79 | 1016.7 |
| 20260830210240 | 78 | 141 | 0.0 | 0.0 | 0.00 | 0.00 | 0.00 | 80 | 1016.9 |
| 20260830205226 | 77 | 166 | 0.0 | 0.0 | 0.00 | 0.00 | 0.00 | 79 | 1016.9 |
| 20260830200826 | 78 | 173 | 0.0 | 1.0 | 0.00 | 0.00 | 0.00 | 78 | 1017.1 |
| 20260830195848 | 78 | 141 | 0.0 | 0.0 | 0.00 | 0.00 | 0.00 | 77 | 1017.3 |
| 20260830194850 | 78 | 309 | 0.0 | 0.0 | 0.00 | 0.00 | 0.00 | 76 | 1017.4 |
| 20260830193841 | 79 | 163 | 0.0 | 5.0 | 0.00 | 0.00 | 0.00 | 74 | 1017.4 |
| 20260830192904 | 79 | 183 | 0.0 | 5.0 | 0.00 | 0.00 | 0.00 | 73 | 1017.5 |
| 20260830191836 | 80 | 169 | 0.0 | 4.0 | 0.00 | 0.00 | 0.00 | 70 | 1017.7 |
| 20260830190820 | 80 | 194 | 0.0 | 3.0 | 0.00 | 0.00 | 0.00 | 70 | 1017.9 |
| 20260830185814 | 80 | 127 | 0.0 | 5.0 | 0.00 | 0.00 | 0.00 | 68 | 1018.0 |
| 20260830184834 | 81 | 97 | 0.0 | 3.0 | 0.00 | 0.00 | 0.00 | 67 | 1018.0 |
| 20260830181539 | 82 | 84 | 0.0 | 4.0 | 0.00 | 0.00 | 0.00 | 63 | 1018.3 |
| 20260830180556 | 83 | 155 | 0.0 | 3.0 | 0.00 | 0.00 | 0.00 | 63 | 1018.5 |
| 20260830175556 | 82 | 141 | 0.0 | 4.0 | 0.00 | 0.00 | 0.00 | 61 | 1018.4 |
| 20260830173416 | 81 | 30 | 0.0 | 6.0 | 0.00 | 0.00 | 0.00 | 62 | 1018.8 |
| 20260830172440 | 81 | 131 | 1.0 | 6.0 | 0.00 | 0.00 | 0.00 | 57 | 1018.8 |
| 20260830171450 | 83 | 75 | 0.0 | 2.0 | 0.00 | 0.00 | 0.00 | 59 | 1018.9 |
| 20260830170424 | 82 | 82 | 0.0 | 1.0 | 0.00 | 0.00 | 0.00 | 54 | 1018.8 |
| 20260830164258 | 82 | 83 | 0.0 | 2.0 | 0.00 | 0.00 | 0.00 | 56 | 1019.1 |
| 20260830163314 | 81 | 99 | 0.0 | 4.0 | 0.00 | 0.00 | 0.00 | 58 | 1019.1 |
| 20260830161141 | 79 | 82 | 0.0 | 2.0 | 0.00 | 0.00 | 0.00 | 57 | 1019.6 |
| 20260830160204 | 80 | 108 | 0.0 | 3.0 | 0.00 | 0.00 | 0.00 | 59 | 1019.7 |
| 20260830155144 | 80 | 175 | 0.0 | 6.0 | 0.00 | 0.00 | 0.00 | 57 | 1019.7 |
| 20260830154133 | 81 | 90 | 0.0 | 6.0 | 0.00 | 0.00 | 0.00 | 55 | 1019.7 |
| 20260830153146 | 81 | 352 | 0.0 | 3.0 | 0.00 | 0.00 | 0.00 | 56 | 1019.9 |
| 20260830152136 | 81 | 188 | 0.0 | 3.0 | 0.00 | 0.00 | 0.00 | 57 | 1020.1 |
| 20260830151122 | 80 | 217 | 0.0 | 6.0 | 0.00 | 0.00 | 0.00 | 61 | 1020.5 |
| 20260830150121 | 79 | 63 | 0.0 | 6.0 | 0.00 | 0.00 | 0.00 | 59 | 1020.6 |
| 20260830145130 | 79 | 89 | 0.0 | 5.0 | 0.00 | 0.00 | 0.00 | 61 | 1020.5 |
| 20260830144057 | 79 | 193 | 0.0 | 3.0 | 0.00 | 0.00 | 0.00 | 62 | 1020.6 |
| 20260830143037 | 79 | 73 | 0.0 | 2.0 | 0.00 | 0.00 | 0.00 | 60 | 1020.6 |
| 20260830142003 | 79 | 122 | 0.0 | 0.0 | 0.00 | 0.00 | 0.00 | 60 | 1020.4 |
| 20260830135833 | 77 | 225 | 0.0 | 1.0 | 0.00 | 0.00 | 0.00 | 65 | 1020.7 |
| 20260830134840 | 76 | 338 | 0.0 | 3.0 | 0.00 | 0.00 | 0.00 | 68 | 1020.8 |
| 20260830133859 | 75 | 153 | 0.0 | 1.0 | 0.00 | 0.00 | 0.00 | 69 | 1020.9 |
| 20260830131740 | 74 | 127 | 0.0 | 0.0 | 0.00 | 0.00 | 0.00 | 72 | 1021.1 |
| 20260830130732 | 72 | 127 | 0.0 | 0.0 | 0.00 | 0.00 | 0.00 | 76 | 1021.2 |
| 20260830124611 | 69 | 132 | 0.0 | 1.0 | 0.00 | 0.00 | 0.00 | 82 | 1021.2 |
| 20260830123553 | 68 | 158 | 0.0 | 0.0 | 0.00 | 0.00 | 0.00 | 88 | 1021.2 |
| 20260830122608 | 66 | 158 | 0.0 | 0.0 | 0.00 | 0.00 | 0.00 | 94 | 1021.3 |
| 20260830121611 | 64 | 158 | 0.0 | 0.0 | 0.00 | 0.00 | 0.00 | 98 | 1021.3 |
| 20260830120605 | 62 | 158 | 0.0 | 0.0 | 0.00 | 0.00 | 0.00 | 99 | 1021.5 |
| 20260830115622 | 62 | 158 | 0.0 | 0.0 | 0.00 | 0.00 | 0.00 | 99 | 1021.5 |
| 20260830114605 | 61 | 158 | 0.0 | 0.0 | 0.00 | 0.00 | 0.00 | 99 | 1021.5 |
| 20260830113622 | 61 | 158 | 0.0 | 0.0 | 0.00 | 0.00 | 0.00 | 99 | 1021.4 |
| 20260830112605 | 60 | 158 | 0.0 | 0.0 | 0.00 | 0.00 | 0.00 | 99 | 1021.4 |
| 20260830111558 | 59 | 158 | 0.0 | 0.0 | 0.00 | 0.00 | 0.00 | 99 | 1021.4 |
| 20260830110620 | 59 | 158 | 0.0 | 0.0 | 0.00 | 0.00 | 0.00 | 99 | 1021.4 |